Regional Weather Roundup
Issued by NWS

Home | Current Version | Previous Version | Graphics & Text | Print | Product List | Glossary On
Versions: 1 2 3 4 5 6 7 8 9 10 11 12 13 14 15 16 17 18 19 20 21 22 23 24 25 26 27 28 29 30 31 32 33 34 35 36 37 38 39 40 41 42 43 44 45 46 47 48 49 50
000
ASUS45 KCYS 200310
RWRWY

WYOMING REGIONAL WEATHER ROUNDUP
NATIONAL WEATHER SERVICE CHEYENNE WY
800 PM MST THU JAN 19 2017

NOTE:  "FAIR" INDICATES FEW OR NO CLOUDS BELOW 12,000 FEET
WITH NO SIGNIFICANT WEATHER AND/OR OBSTRUCTIONS TO VISIBILITY.

WYZ001-200400-
YELLOWSTONE NATIONAL PARK

CITY           SKY/WX    TMP DP  RH WIND       PRES   REMARKS
LK YELLOWSTONE   N/A     23  22  96 CALM      29.63S
W YELLOWSTONE  NOT AVBL

$$
WYZ002>013-054>058-071-098>099-200400-
NORTHERN WYOMING

CITY           SKY/WX    TMP DP  RH WIND       PRES   REMARKS
JACKSON        CLOUDY    28  27  93 SW7       29.63F WCI  21
CODY           MOCLDY    40  22  48 W9        29.54R WCI  34
GREYBULL       CLOUDY    24  18  77 SE6       29.55R WCI  17
WORLAND        CLOUDY    24  23  96 NW3       29.54R
SHERIDAN       FAIR      27  20  75 S8        29.50F WCI  19
BUFFALO        FAIR      35  21  56 NW7       29.51S WCI  29
GILLETTE       FAIR      32  24  72 W7        29.49S WCI  26
HULETT         FAIR      34  25  69 SW7       29.47F WCI  28
NEWCASTLE      FAIR      30  23  74 N8        29.51F WCI  23

$$
WYZ014>020-022>026-101>103-200400-
CENTRAL WYOMING

CITY           SKY/WX    TMP DP  RH WIND       PRES   REMARKS
BIG PINEY      CLOUDY    13  11  92 CALM      29.65F
PINEDALE       MOCLDY    12  12 100 SE3       29.66F
DUBOIS         NOT AVBL
LANDER         MOCLDY    22  15  75 W8        29.54S WCI  12
RIVERTON       CLOUDY    20  14  77 CALM      29.56S
CASPER         FAIR      30  23  75 SW16      29.57S WCI  19
DOUGLAS        FAIR      35  22  58 W9        29.53F WCI  28

$$
WYZ021-027>030-104>119-200400-
SOUTHERN WYOMING

CITY           SKY/WX    TMP DP  RH WIND       PRES   REMARKS
EVANSTON       LGT SNOW  27  24  89 W5        29.67S FOG     WCI  22
ROCK SPRINGS   LGT SNOW  20  18  92 SW6       29.65F FOG     WCI  12
RAWLINS        CLOUDY    29  22  75 SW20      29.63F WCI  16
LARAMIE        FAIR      19  13  77 W5        29.57F WCI  12
CHEYENNE       FAIR      34  19  54 W14       29.53F WCI  25
TORRINGTON     FAIR      37  21  52 W8        29.50F WCI  31

$$



USA.gov is the U.S. government's official web portal to all federal, state and local government web resources and services.